sat.trackr.live / text

‹ back to catalog

MARMOTSAT

NORAD 69912 · 2026-156AV

PAYLOAD ACTIVE UNKNOWN

§ Identity

Operator
Country
CA
Launch date
2026-07-07
Launch site
AFWTR
Launch vehicle
Mass (kg)
RCS (m²)

External: N2YO · Heavens-Above · Gunter

§ Orbital elements

Epoch: 2026-09-20T04:14:16.599264Z

Period
96.58 min
Inclination
97.7472°
Eccentricity
0.0000939
Mean motion
14.90954502 rev/d
Perigee alt
594.3 km
Apogee alt
595.6 km
Semi-major
6,973.1 km
B*
8.8607e-5
RAAN
162.2896°
Arg perigee
236.9721°
Mean anomaly
123.1408°
Rev number
1,115

§ Raw data

MARMOTSAT1 69912U 26156AV  26263.17658101  .00000820  00000+0  88607-4 0  99972 69912  97.7472 162.2896 0000939 236.9721 123.1408 14.90954502 11156

JSON: /api/v1/satellites/69912 · /tle

For live sub-satellite position, see the globe view (requires WebGL).

§ Visibility from observer

Set your observer location to see the next 7 days of passes ≥ 10°. The values pass through the URL so the page stays shareable.

No JS? Fill the form by hand. The geolocation button needs JavaScript.